Regional Weather Roundup
Issued by NWS

Home | Current Version | Previous Version | Graphics & Text | Print | Product List | Glossary On
Versions: 1 2 3 4 5 6 7 8 9 10 11 12 13 14 15 16 17 18 19 20 21 22 23 24 25 26 27 28 29 30 31 32 33 34 35 36 37 38 39 40 41 42 43 44 45 46 47 48 49 50
000
ASUS43 KDMX 191107
RWRIA

WEATHER ROUNDUP FOR IOWA
NATIONAL WEATHER SERVICE DES MOINES IA
600 AM CDT SUN OCT 19 2014

NOTE: "FAIR" INDICATES FEW OR NO CLOUDS BELOW 12,000 FEET WITH NO
SIGNIFICANT WEATHER AND/OR OBSTRUCTIONS TO VISIBILITY.

* - THESE STATIONS ARE NOT NWS STATIONS...THUS NOT UNDER NWS
QUALITY CONTROL.  THEY ALSO DO NOT REPORT WEATHER SUCH
AS PRECIPITATION OR FOG.

IAZ001>003-012>014-020>022-031>034-043>046-191200-
   NORTHWEST IOWA

CITY           SKY/WX    TMP DP  RH WIND       PRES   REMARKS
CARROLL *      PTCLDY    41  39  93 SW9       30.10F
CHEROKEE *     CLEAR     43  41  93 S8        30.06F
DENISON *      CLEAR     43  41  93 S9        30.08S
LE MARS *      CLEAR     43  41  93 S9        30.04F
ORANGE CITY *  CLEAR     45  37  76 S8        30.03F
SHELDON *      CLEAR     43  39  87 S13       30.01F
SIOUX CITY     CLEAR     45  40  82 SE8       30.05F
SPENCER        CLEAR     44  39  82 SW10      30.04F
STORM LAKE *   CLEAR     43  39  87 S8        30.07F
$$

IAZ055>058-069>071-079>083-090>094-191200-
   SOUTHWEST IOWA

CITY           SKY/WX    TMP DP  RH WIND       PRES   REMARKS
ATLANTIC *     CLEAR     37  37 100 SW5       30.12F WCI  34
AUDUBON *      CLEAR     43  36  75 S10       30.12F
CLARINDA *       N/A     34  34 100 CALM      30.17S
COUNCIL BLFS * CLEAR     43  43 100 CALM      30.10F
CRESTON *      CLEAR     39  39 100 S10       30.15S WCI  32
HARLAN  *      CLEAR     39  39 100 S7        30.15S WCI  34
LAMONI         CLEAR     40  38  93 S7        30.16F
RED OAK *      CLEAR     37  36  93 S5        30.14F WCI  34
SHENANDOAH *   CLEAR     39  39 100 CALM      30.15F
$$

IAZ047>049-059>061-072>074-084-191200-
   CENTRAL IOWA

CITY           SKY/WX    TMP DP  RH WIND       PRES   REMARKS
AMES           CLEAR     38  36  92 S7        30.13F WCI  33
ANKENY *       CLEAR     37  37 100 S5        30.15S WCI  34
CHARITON *     CLEAR     39  37  93 S7        30.17S WCI  34
DES MOINES     CLEAR     40  37  89 S8        30.15S WCI  34
GRINNELL*      CLEAR     37  36  93 S6        30.17S WCI  33
KNOXVILLE *    CLEAR     39  37  93 S8        30.16S WCI  34
MARSHALLTOWN   CLEAR     37  36  96 S8        30.13F WCI  31
PELLA *        CLEAR     39  39 100 S6        30.18S WCI  35
PERRY *          N/A     36  36 100 SE5       30.13S WCI  32
$$

IAZ004>006-015-016-023>025-035-036-191200-
   NORTH CENTRAL IOWA

CITY           SKY/WX    TMP DP  RH WIND       PRES   REMARKS
ALGONA *       CLEAR     41  39  93 S12       30.06F
CLARION *      CLEAR     36  36 100 S9        30.10F WCI  29
ESTHERVILLE    PTCLDY    43  39  86 SW15      30.02F
FORT DODGE *   CLEAR     41  36  81 S9        30.10F
MASON CITY     MOCLDY    40  38  93 S10       30.09F WCI  33
FOREST CITY *  CLEAR     41  39  93 S6        30.07F
IOWA FALLS *     N/A     39  37  93 S6        30.13S WCI  35
$$

IAZ007>011-017>019-026>030-037>042-050>054-066-191200-
   NORTHEAST IOWA

CITY           SKY/WX    TMP DP  RH WIND       PRES   REMARKS
CEDAR RAPIDS   CLEAR     33  33 100 S5        30.16R WCI  29
CHARLES CITY * CLEAR     36  36 100 SW7       30.12S WCI  30
CLINTON *      PTCLDY    34  30  86 S5        30.21R VSB 1   WCI  30
DECORAH *      CLEAR     37  36  93 VRB5      30.11F WCI  34
DUBUQUE        CLEAR     33  32  96 S7        30.16R WCI  27
MONTICELLO *   CLEAR     37  37 100 CALM      30.17R
OELWEIN *      CLEAR     34  32  93 S8        30.14F WCI  27
WATERLOO       PTCLDY    36  34  92 SW5       30.13F WCI  32
$$

IAZ064-065-067-068-078-191200-
   EAST CENTRAL IOWA

CITY           SKY/WX    TMP DP  RH WIND       PRES   REMARKS
DAVENPORT      PTCLDY    36  34  92 SW5       30.18S FOG     WCI  32
IOWA CITY      FOG       33  33 100 CALM      30.20R VSB 1/2
MT. PLEASANT * CLEAR     34  34 100 SW5       30.20R FOG     WCI  30
MUSCATINE *    CLEAR     32  32 100 CALM      30.20S
QUAD CITIES    PTCLDY    33  31  92 CALM      30.19R FOG
$$

IAZ062-063-075>077-085>089-095>099-191200-
   SOUTHEAST IOWA

CITY           SKY/WX    TMP DP  RH WIND       PRES   REMARKS
BURLINGTON     PTCLDY    37  37 100 SW3       30.19S FOG
FAIRFIELD *      N/A     36  36 100 SW3       30.19S
FORT MADISON * CLEAR     41  41 100 SW5       30.20S FOG
KEOKUK *       CLEAR     37  36  93 CALM      30.20R FOG
OSKALOOSA *      N/A     34  34 100 S3        30.19R
CENTERVILLE *  CLEAR     37  37 100 S3        30.19S
OTTUMWA        CLEAR     36  34  92 SW5       30.18R WCI  32
WASHINGTON *   CLEAR     37  37 100 SW6       30.19R WCI  33
$$

ABBREVIATIONS USED IN REMARKS
   TC - TEMPERATURES IN CELSIUS
  WCI - WIND CHILL INDEX
   HX - HEAT INDEX
  VSB - VISIBILITY
$$



USA.gov is the U.S. government's official web portal to all federal, state and local government web resources and services.